Time,TemperatureF,DewpointF,PressureIn,WindDirection,WindDirectionDegrees,WindSpeedMPH,WindSpeedGustMPH,Humidity,HourlyPrecipIn,Conditions,Clouds,dailyrainin,SoftwareType,DateUTC
2013-09-22 00:00:00,70.0,58.1,29.62,East,90,0.7,3.1,66,0.06,,,0.00,meteobridge,2013-09-22 04:00:00,
2013-09-22 00:01:00,70.0,58.1,29.62,East,90,0.7,3.1,66,0.06,,,0.00,meteobridge,2013-09-22 04:01:00,
2013-09-22 00:02:00,70.2,58.3,29.62,West,270,6.0,6.0,66,0.06,,,0.00,meteobridge,2013-09-22 04:02:00,
2013-09-22 00:04:00,70.3,58.1,29.62,South,180,5.4,5.4,65,0.06,,,0.00,meteobridge,2013-09-22 04:04:00,
2013-09-22 00:07:00,68.7,56.8,29.62,East,90,5.4,5.4,66,0.07,,,0.01,meteobridge,2013-09-22 04:07:00,
2013-09-22 00:13:00,68.2,56.8,29.62,South,180,6.0,6.9,67,0.09,,,0.05,meteobridge,2013-09-22 04:13:00,
2013-09-22 00:19:00,68.0,57.4,29.61,SE,135,4.5,7.6,69,0.14,,,0.11,meteobridge,2013-09-22 04:19:00,
2013-09-22 00:24:00,67.8,58.1,29.61,NE,45,5.4,6.0,71,0.22,,,0.19,meteobridge,2013-09-22 04:24:00,
2013-09-22 00:30:00,67.6,58.3,29.61,South,180,2.2,9.2,72,0.31,,,0.28,meteobridge,2013-09-22 04:30:00,
2013-09-22 00:36:00,67.5,58.5,29.60,South,180,6.0,14.5,73,0.52,,,0.50,meteobridge,2013-09-22 04:36:00,
2013-09-22 00:41:00,67.5,58.5,29.60,SE,135,7.6,7.6,73,0.64,,,0.63,meteobridge,2013-09-22 04:41:00,
2013-09-22 00:47:00,67.6,59.0,29.60,NE,45,2.2,6.9,74,0.67,,,0.66,meteobridge,2013-09-22 04:47:00,
2013-09-22 00:53:00,67.8,59.2,29.61,South,180,5.4,5.4,74,0.71,,,0.70,meteobridge,2013-09-22 04:53:00,
2013-09-22 00:58:00,67.6,59.0,29.61,South,180,1.6,1.6,74,0.72,,,0.71,meteobridge,2013-09-22 04:58:00,
2013-09-22 01:04:00,67.6,59.0,29.62,SW,225,9.2,9.2,74,0.76,,,0.76,meteobridge,2013-09-22 05:04:00,
2013-09-22 01:09:00,64.4,55.6,29.62,SW,225,3.8,3.8,73,0.83,,,0.85,meteobridge,2013-09-22 05:09:00,
2013-09-22 01:15:00,64.2,55.0,29.62,East,90,0.0,2.2,72,0.83,,,0.89,meteobridge,2013-09-22 05:15:00,
2013-09-22 01:21:00,64.2,55.0,29.62,North,0,0.0,0.0,72,0.76,,,0.90,meteobridge,2013-09-22 05:21:00,
2013-09-22 01:26:00,64.2,55.0,29.63,West,270,0.7,1.6,72,0.70,,,0.91,meteobridge,2013-09-22 05:26:00,
2013-09-22 01:32:00,64.0,54.9,29.63,SE,135,0.0,0.0,72,0.59,,,0.93,meteobridge,2013-09-22 05:32:00,
2013-09-22 01:38:00,64.0,54.9,29.63,North,0,0.7,0.7,72,0.40,,,0.97,meteobridge,2013-09-22 05:38:00,
2013-09-22 01:43:00,63.7,54.5,29.63,East,90,0.0,0.0,72,0.38,,,1.02,meteobridge,2013-09-22 05:43:00,
2013-09-22 01:49:00,63.9,54.7,29.63,South,180,0.0,0.0,72,0.35,,,1.03,meteobridge,2013-09-22 05:49:00,
2013-09-22 01:55:00,63.1,54.0,29.62,East,90,0.0,0.0,72,0.39,,,1.09,meteobridge,2013-09-22 05:55:00,
2013-09-22 02:00:00,63.0,54.1,29.62,West,270,0.0,0.0,73,0.40,,,1.11,meteobridge,2013-09-22 06:00:00,
2013-09-22 02:06:00,63.0,54.1,29.61,West,270,0.0,0.0,73,0.28,,,1.11,meteobridge,2013-09-22 06:06:00,
2013-09-22 02:11:00,63.0,54.1,29.62,East,90,0.0,0.0,73,0.25,,,1.12,meteobridge,2013-09-22 06:11:00,
2013-09-22 02:17:00,63.1,54.3,29.62,East,90,0.0,0.0,73,0.24,,,1.12,meteobridge,2013-09-22 06:17:00,
2013-09-22 02:23:00,63.3,54.5,29.62,North,0,0.0,0.7,73,0.24,,,1.15,meteobridge,2013-09-22 06:23:00,
2013-09-22 02:28:00,63.0,54.1,29.61,NE,45,0.0,0.0,73,0.22,,,1.15,meteobridge,2013-09-22 06:28:00,
2013-09-22 02:34:00,63.0,54.5,29.61,East,90,0.0,0.0,74,0.22,,,1.17,meteobridge,2013-09-22 06:34:00,
2013-09-22 02:40:00,63.0,54.5,29.61,South,180,0.0,0.0,74,0.19,,,1.17,meteobridge,2013-09-22 06:40:00,
2013-09-22 02:45:00,62.8,54.3,29.60,South,180,0.0,0.0,74,0.17,,,1.19,meteobridge,2013-09-22 06:45:00,
2013-09-22 02:51:00,63.0,54.5,29.60,South,180,0.0,0.0,74,0.18,,,1.20,meteobridge,2013-09-22 06:51:00,
2013-09-22 02:57:00,62.8,54.3,29.61,South,180,0.0,0.0,74,0.12,,,1.22,meteobridge,2013-09-22 06:57:00,
2013-09-22 03:02:00,62.6,54.1,29.62,SW,225,1.6,2.2,74,0.12,,,1.23,meteobridge,2013-09-22 07:02:00,
2013-09-22 03:08:00,62.6,54.1,29.62,SW,225,0.0,0.7,74,0.12,,,1.24,meteobridge,2013-09-22 07:08:00,
2013-09-22 03:14:00,62.6,54.1,29.63,West,270,0.0,1.6,74,0.12,,,1.24,meteobridge,2013-09-22 07:14:00,
2013-09-22 03:19:00,61.9,53.8,29.62,West,270,0.7,0.7,75,0.12,,,1.25,meteobridge,2013-09-22 07:19:00,
2013-09-22 03:25:00,61.9,53.8,29.61,East,90,0.0,0.7,75,0.12,,,1.26,meteobridge,2013-09-22 07:25:00,
2013-09-22 03:30:00,62.1,54.0,29.60,East,90,0.0,0.0,75,0.11,,,1.26,meteobridge,2013-09-22 07:30:00,
2013-09-22 03:36:00,62.1,54.0,29.60,East,90,0.0,0.0,75,0.09,,,1.26,meteobridge,2013-09-22 07:36:00,
2013-09-22 03:42:00,62.1,54.0,29.60,West,270,1.6,1.6,75,0.09,,,1.28,meteobridge,2013-09-22 07:42:00,
2013-09-22 03:47:00,61.9,53.8,29.60,South,180,0.0,0.0,75,0.07,,,1.28,meteobridge,2013-09-22 07:47:00,
2013-09-22 03:53:00,61.9,53.8,29.62,South,180,0.7,0.7,75,0.07,,,1.29,meteobridge,2013-09-22 07:53:00,
2013-09-22 03:59:00,62.1,54.0,29.62,South,180,0.0,0.0,75,0.06,,,1.29,meteobridge,2013-09-22 07:59:00,
2013-09-22 04:04:00,61.9,53.8,29.62,SE,135,0.0,0.0,75,0.06,,,1.29,meteobridge,2013-09-22 08:04:00,
2013-09-22 04:10:00,61.9,53.8,29.62,East,90,0.0,0.0,75,0.06,,,1.30,meteobridge,2013-09-22 08:10:00,
2013-09-22 04:16:00,61.9,54.3,29.62,East,90,0.0,0.0,76,0.05,,,1.30,meteobridge,2013-09-22 08:16:00,
2013-09-22 04:21:00,61.7,54.1,29.62,West,270,0.0,0.0,76,0.05,,,1.30,meteobridge,2013-09-22 08:21:00,
2013-09-22 04:27:00,62.2,54.5,29.63,South,180,0.0,0.0,76,0.04,,,1.30,meteobridge,2013-09-22 08:27:00,
2013-09-22 04:32:00,62.4,54.7,29.62,South,180,1.6,1.6,76,0.04,,,1.30,meteobridge,2013-09-22 08:32:00,
2013-09-22 04:38:00,62.6,54.5,29.62,East,90,0.0,0.0,75,0.02,,,1.30,meteobridge,2013-09-22 08:38:00,
2013-09-22 04:44:00,62.2,54.1,29.62,West,270,0.0,0.0,75,0.02,,,1.30,meteobridge,2013-09-22 08:44:00,
2013-09-22 04:49:00,61.7,53.8,29.62,West,270,0.0,0.0,75,0.02,,,1.30,meteobridge,2013-09-22 08:49:00,
2013-09-22 04:54:00,61.7,53.8,29.62,West,270,0.0,0.0,75,0.01,,,1.30,meteobridge,2013-09-22 08:54:00,
2013-09-22 05:00:00,61.5,53.6,29.63,South,180,0.0,0.0,75,0.01,,,1.30,meteobridge,2013-09-22 09:00:00,
2013-09-22 05:06:00,61.3,53.4,29.63,West,270,0.0,0.0,75,0.01,,,1.30,meteobridge,2013-09-22 09:06:00,
2013-09-22 05:11:00,61.2,53.2,29.63,West,270,0.0,0.0,75,0.00,,,1.30,meteobridge,2013-09-22 09:11:00,
2013-09-22 05:17:00,61.0,53.1,29.63,East,90,0.0,0.7,75,0.00,,,1.30,meteobridge,2013-09-22 09:17:00,
2013-09-22 05:23:00,61.0,53.1,29.63,East,90,0.0,0.0,75,0.00,,,1.30,meteobridge,2013-09-22 09:23:00,
2013-09-22 05:28:00,61.2,53.2,29.63,East,90,0.0,0.0,75,0.00,,,1.30,meteobridge,2013-09-22 09:28:00,
2013-09-22 05:34:00,61.3,53.4,29.64,West,270,0.0,0.0,75,0.00,,,1.30,meteobridge,2013-09-22 09:34:00,
2013-09-22 05:39:00,61.3,53.4,29.64,West,270,0.0,0.0,75,0.00,,,1.30,meteobridge,2013-09-22 09:39:00,
2013-09-22 05:45:00,61.2,53.2,29.64,West,270,0.0,0.0,75,0.00,,,1.30,meteobridge,2013-09-22 09:45:00,
2013-09-22 05:51:00,60.6,53.1,29.65,North,0,3.1,3.1,76,0.00,,,1.30,meteobridge,2013-09-22 09:51:00,
2013-09-22 05:56:00,61.0,53.1,29.65,East,90,0.0,0.0,75,0.00,,,1.30,meteobridge,2013-09-22 09:56:00,
2013-09-22 06:02:00,61.0,53.1,29.65,East,90,0.0,0.0,75,0.00,,,1.30,meteobridge,2013-09-22 10:02:00,
2013-09-22 06:08:00,60.6,53.1,29.65,East,90,0.0,0.0,76,0.00,,,1.30,meteobridge,2013-09-22 10:08:00,
2013-09-22 06:13:00,60.8,52.5,29.65,East,90,0.0,0.0,74,0.00,,,1.30,meteobridge,2013-09-22 10:13:00,
2013-09-22 06:19:00,60.8,52.5,29.65,East,90,0.0,0.0,74,0.00,,,1.30,meteobridge,2013-09-22 10:19:00,
2013-09-22 06:25:00,60.6,52.7,29.65,West,270,0.0,0.0,75,0.00,,,1.30,meteobridge,2013-09-22 10:25:00,
2013-09-22 06:30:00,60.4,52.5,29.65,West,270,0.0,0.0,75,0.00,,,1.30,meteobridge,2013-09-22 10:30:00,
2013-09-22 06:36:00,60.3,52.3,29.66,West,270,0.0,0.0,75,0.00,,,1.30,meteobridge,2013-09-22 10:36:00,
2013-09-22 06:41:00,60.4,52.9,29.65,West,270,0.0,0.0,76,0.00,,,1.30,meteobridge,2013-09-22 10:41:00,
2013-09-22 06:47:00,60.3,52.7,29.65,West,270,0.0,0.0,76,0.00,,,1.30,meteobridge,2013-09-22 10:47:00,
2013-09-22 06:53:00,60.3,52.7,29.66,West,270,0.0,0.0,76,0.00,,,1.30,meteobridge,2013-09-22 10:53:00,
2013-09-22 06:58:00,60.3,52.7,29.66,West,270,0.0,0.0,76,0.00,,,1.30,meteobridge,2013-09-22 10:58:00,
2013-09-22 07:05:00,59.9,52.3,29.66,West,270,0.0,0.0,76,0.00,,,1.30,meteobridge,2013-09-22 11:05:00,
2013-09-22 07:11:00,60.1,52.5,29.66,West,270,0.0,0.0,76,0.00,,,1.30,meteobridge,2013-09-22 11:11:00,
2013-09-22 07:17:00,60.1,52.5,29.67,NE,45,0.0,0.0,76,0.00,,,1.30,meteobridge,2013-09-22 11:17:00,
2013-09-22 07:22:00,59.7,52.2,29.67,West,270,0.7,1.6,76,0.00,,,1.30,meteobridge,2013-09-22 11:22:00,
2013-09-22 07:28:00,59.9,52.3,29.67,East,90,0.0,3.1,76,0.00,,,1.30,meteobridge,2013-09-22 11:28:00,
2013-09-22 07:34:00,59.9,52.3,29.67,East,90,0.0,0.0,76,0.00,,,1.30,meteobridge,2013-09-22 11:34:00,
2013-09-22 07:39:00,59.7,52.2,29.67,North,0,0.0,0.7,76,0.00,,,1.30,meteobridge,2013-09-22 11:39:00,
2013-09-22 07:45:00,59.9,52.0,29.67,South,180,0.7,1.6,75,0.00,,,1.30,meteobridge,2013-09-22 11:45:00,
2013-09-22 07:51:00,59.5,51.6,29.67,North,0,3.8,3.8,75,0.00,,,1.30,meteobridge,2013-09-22 11:51:00,
2013-09-22 07:56:00,59.9,51.6,29.67,NW,315,2.2,3.1,74,0.00,,,1.30,meteobridge,2013-09-22 11:56:00,
2013-09-22 08:02:00,60.1,51.8,29.67,North,0,0.0,1.6,74,0.00,,,1.30,meteobridge,2013-09-22 12:02:00,
2013-09-22 08:07:00,60.4,51.8,29.67,West,270,0.0,2.2,73,0.00,,,1.30,meteobridge,2013-09-22 12:07:00,
2013-09-22 08:13:00,60.6,52.0,29.67,North,0,4.5,4.5,73,0.00,,,1.30,meteobridge,2013-09-22 12:13:00,
2013-09-22 08:19:00,61.0,51.4,29.67,North,0,0.7,1.6,71,0.00,,,1.30,meteobridge,2013-09-22 12:19:00,
2013-09-22 08:24:00,61.2,51.3,29.68,North,0,4.5,6.9,70,0.00,,,1.30,meteobridge,2013-09-22 12:24:00,
2013-09-22 08:29:00,61.3,51.1,29.67,West,270,6.9,6.9,69,0.00,,,1.30,meteobridge,2013-09-22 12:29:00,
2013-09-22 08:35:00,61.5,50.9,29.67,West,270,10.7,10.7,68,0.00,,,1.30,meteobridge,2013-09-22 12:35:00,
2013-09-22 08:41:00,61.7,50.7,29.68,North,0,6.9,6.9,67,0.00,,,1.30,meteobridge,2013-09-22 12:41:00,
2013-09-22 08:46:00,61.5,50.5,29.68,North,0,6.9,6.9,67,0.00,,,1.30,meteobridge,2013-09-22 12:46:00,
2013-09-22 08:52:00,62.1,50.5,29.68,NW,315,4.5,6.0,66,0.00,,,1.30,meteobridge,2013-09-22 12:52:00,
2013-09-22 08:58:00,62.6,50.2,29.68,West,270,7.6,9.8,64,0.00,,,1.30,meteobridge,2013-09-22 12:58:00,
2013-09-22 09:03:00,62.8,50.9,29.69,North,0,2.2,4.5,65,0.00,,,1.30,meteobridge,2013-09-22 13:03:00,
2013-09-22 09:09:00,63.0,50.5,29.69,NW,315,6.0,6.0,64,0.00,,,1.30,meteobridge,2013-09-22 13:09:00,
2013-09-22 09:14:00,62.6,50.2,29.69,West,270,7.6,7.6,64,0.00,,,1.30,meteobridge,2013-09-22 13:14:00,
2013-09-22 09:20:00,61.9,49.6,29.69,North,0,8.3,8.3,64,0.00,,,1.30,meteobridge,2013-09-22 13:20:00,
2013-09-22 09:26:00,61.9,50.0,29.69,West,270,3.8,3.8,65,0.00,,,1.30,meteobridge,2013-09-22 13:26:00,
2013-09-22 09:31:00,62.2,50.0,29.69,West,270,6.0,7.6,64,0.00,,,1.30,meteobridge,2013-09-22 13:31:00,
2013-09-22 09:37:00,63.0,50.2,29.69,North,0,5.4,5.4,63,0.00,,,1.30,meteobridge,2013-09-22 13:37:00,
2013-09-22 09:43:00,63.1,50.4,29.70,West,270,8.3,8.3,63,0.00,,,1.30,meteobridge,2013-09-22 13:43:00,
2013-09-22 09:48:00,63.3,50.0,29.70,West,270,5.4,8.3,62,0.00,,,1.30,meteobridge,2013-09-22 13:48:00,
2013-09-22 09:54:00,63.1,49.8,29.70,West,270,5.4,12.1,62,0.00,,,1.30,meteobridge,2013-09-22 13:54:00,
2013-09-22 10:00:00,63.1,49.8,29.70,West,270,3.8,5.4,62,0.00,,,1.30,meteobridge,2013-09-22 14:00:00,
2013-09-22 10:05:00,63.9,50.5,29.70,North,0,2.2,13.0,62,0.00,,,1.30,meteobridge,2013-09-22 14:05:00,
2013-09-22 10:11:00,63.9,49.6,29.70,North,0,12.1,15.2,60,0.00,,,1.30,meteobridge,2013-09-22 14:11:00,
2013-09-22 10:16:00,64.8,50.2,29.70,NW,315,4.5,4.5,59,0.00,,,1.30,meteobridge,2013-09-22 14:16:00,
2013-09-22 10:22:00,64.8,49.6,29.70,North,0,9.8,9.8,58,0.00,,,1.30,meteobridge,2013-09-22 14:22:00,
2013-09-22 10:28:00,65.5,50.4,29.70,NW,315,10.7,10.7,58,0.00,,,1.30,meteobridge,2013-09-22 14:28:00,
2013-09-22 10:33:00,64.9,49.8,29.70,West,270,9.8,9.8,58,0.00,,,1.30,meteobridge,2013-09-22 14:33:00,
2013-09-22 10:39:00,65.1,49.5,29.71,West,270,8.3,13.6,57,0.00,,,1.30,meteobridge,2013-09-22 14:39:00,
2013-09-22 10:45:00,65.3,49.3,29.71,West,270,6.0,9.2,56,0.00,,,1.30,meteobridge,2013-09-22 14:45:00,
2013-09-22 10:50:00,64.4,47.8,29.70,North,0,8.3,13.6,55,0.00,,,1.30,meteobridge,2013-09-22 14:50:00,
2013-09-22 10:56:00,64.4,47.8,29.71,NW,315,7.6,14.5,55,0.00,,,1.30,meteobridge,2013-09-22 14:56:00,
2013-09-22 11:02:00,65.8,49.6,29.71,West,270,7.6,7.6,56,0.00,,,1.30,meteobridge,2013-09-22 15:02:00,
2013-09-22 11:07:00,64.4,47.5,29.71,East,90,13.6,13.6,54,0.00,,,1.30,meteobridge,2013-09-22 15:07:00,
2013-09-22 11:13:00,66.4,49.3,29.71,SW,225,8.3,8.3,54,0.00,,,1.30,meteobridge,2013-09-22 15:13:00,
2013-09-22 11:18:00,67.3,50.0,29.71,West,270,6.9,9.8,54,0.00,,,1.30,meteobridge,2013-09-22 15:18:00,
2013-09-22 11:24:00,66.6,49.5,29.71,NW,315,11.4,11.4,54,0.00,,,1.30,meteobridge,2013-09-22 15:24:00,
2013-09-22 11:30:00,65.8,48.2,29.71,NE,45,14.5,14.5,53,0.00,,,1.30,meteobridge,2013-09-22 15:30:00,
2013-09-22 11:35:00,65.7,47.5,29.70,NW,315,12.1,12.1,52,0.00,,,1.30,meteobridge,2013-09-22 15:35:00,
2013-09-22 11:41:00,65.8,48.7,29.70,East,90,9.8,9.8,54,0.00,,,1.30,meteobridge,2013-09-22 15:41:00,
2013-09-22 11:47:00,67.1,48.9,29.70,North,0,6.0,6.0,52,0.00,,,1.30,meteobridge,2013-09-22 15:47:00,
2013-09-22 11:52:00,65.7,48.6,29.71,West,270,7.6,7.6,54,0.00,,,1.30,meteobridge,2013-09-22 15:52:00,
2013-09-22 11:58:00,68.5,49.1,29.70,West,270,2.2,3.8,50,0.00,,,1.30,meteobridge,2013-09-22 15:58:00,
2013-09-22 12:04:00,70.3,49.1,29.71,North,0,5.4,6.0,47,0.00,,,1.30,meteobridge,2013-09-22 16:04:00,
2013-09-22 12:09:00,67.5,46.6,29.70,SW,225,13.0,13.0,47,0.00,,,1.30,meteobridge,2013-09-22 16:09:00,
2013-09-22 12:15:00,65.5,48.4,29.71,West,270,4.5,8.3,54,0.00,,,1.30,meteobridge,2013-09-22 16:15:00,
2013-09-22 12:21:00,65.5,47.5,29.71,North,0,7.6,11.4,52,0.00,,,1.30,meteobridge,2013-09-22 16:21:00,
2013-09-22 12:26:00,67.5,49.3,29.70,North,0,7.6,10.7,52,0.00,,,1.30,meteobridge,2013-09-22 16:26:00,
2013-09-22 12:32:00,66.9,49.3,29.71,North,0,6.9,8.3,53,0.00,,,1.30,meteobridge,2013-09-22 16:32:00,
2013-09-22 12:37:00,67.6,48.9,29.71,West,270,10.7,11.4,51,0.00,,,1.30,meteobridge,2013-09-22 16:37:00,
2013-09-22 12:43:00,64.4,47.5,29.71,North,0,8.3,12.1,54,0.00,,,1.30,meteobridge,2013-09-22 16:43:00,
2013-09-22 12:49:00,68.4,50.5,29.71,NW,315,3.1,6.0,53,0.00,,,1.30,meteobridge,2013-09-22 16:49:00,
2013-09-22 12:54:00,69.3,50.9,29.71,SW,225,4.5,4.5,52,0.00,,,1.30,meteobridge,2013-09-22 16:54:00,
2013-09-22 13:00:00,64.8,47.3,29.71,North,0,13.0,13.0,53,0.00,,,1.30,meteobridge,2013-09-22 17:00:00,
2013-09-22 13:06:00,64.6,47.5,29.71,NW,315,5.4,6.9,54,0.00,,,1.30,meteobridge,2013-09-22 17:06:00,
2013-09-22 13:11:00,66.9,49.3,29.71,West,270,10.7,10.7,53,0.00,,,1.30,meteobridge,2013-09-22 17:11:00,
2013-09-22 13:17:00,63.7,46.8,29.71,NW,315,11.4,12.1,54,0.00,,,1.30,meteobridge,2013-09-22 17:17:00,
2013-09-22 13:23:00,63.3,45.9,29.71,West,270,8.3,11.4,53,0.00,,,1.30,meteobridge,2013-09-22 17:23:00,
2013-09-22 13:28:00,64.0,47.1,29.71,NW,315,6.0,6.9,54,0.00,,,1.30,meteobridge,2013-09-22 17:28:00,
2013-09-22 13:34:00,64.2,47.3,29.71,West,270,6.0,7.6,54,0.00,,,1.30,meteobridge,2013-09-22 17:34:00,
2013-09-22 13:39:00,66.2,49.6,29.71,West,270,4.5,6.0,55,0.00,,,1.30,meteobridge,2013-09-22 17:39:00,
2013-09-22 13:45:00,68.5,50.7,29.71,NW,315,6.9,6.9,53,0.00,,,1.30,meteobridge,2013-09-22 17:45:00,
2013-09-22 13:50:00,67.5,50.2,29.70,West,270,6.0,7.6,54,0.00,,,1.30,meteobridge,2013-09-22 17:50:00,
2013-09-22 13:56:00,65.3,47.3,29.70,NW,315,5.4,9.8,52,0.00,,,1.30,meteobridge,2013-09-22 17:56:00,
2013-09-22 14:01:00,65.7,48.6,29.71,West,270,3.1,5.4,54,0.00,,,1.30,meteobridge,2013-09-22 18:01:00,
2013-09-22 14:07:00,64.9,47.8,29.71,North,0,9.2,9.8,54,0.00,,,1.30,meteobridge,2013-09-22 18:07:00,
2013-09-22 14:13:00,66.0,49.5,29.71,North,0,4.5,4.5,55,0.00,,,1.30,meteobridge,2013-09-22 18:13:00,
2013-09-22 14:18:00,65.5,48.4,29.71,North,0,8.3,9.2,54,0.00,,,1.30,meteobridge,2013-09-22 18:18:00,
2013-09-22 14:24:00,65.1,48.6,29.71,NW,315,13.6,13.6,55,0.00,,,1.30,meteobridge,2013-09-22 18:24:00,
2013-09-22 14:29:00,65.5,47.8,29.71,South,180,6.0,12.1,53,0.00,,,1.30,meteobridge,2013-09-22 18:29:00,
2013-09-22 14:35:00,64.9,48.4,29.71,NW,315,8.3,8.3,55,0.00,,,1.30,meteobridge,2013-09-22 18:35:00,
2013-09-22 14:41:00,64.2,47.7,29.72,North,0,8.3,9.8,55,0.00,,,1.30,meteobridge,2013-09-22 18:41:00,
2013-09-22 14:46:00,63.5,46.0,29.72,NW,315,9.8,9.8,53,0.00,,,1.30,meteobridge,2013-09-22 18:46:00,
2013-09-22 14:52:00,63.5,46.6,29.72,NW,315,6.0,13.6,54,0.00,,,1.30,meteobridge,2013-09-22 18:52:00,
2013-09-22 14:58:00,63.3,45.9,29.72,North,0,4.5,9.8,53,0.00,,,1.30,meteobridge,2013-09-22 18:58:00,
2013-09-22 15:03:00,64.4,47.8,29.71,West,270,3.8,3.8,55,0.00,,,1.30,meteobridge,2013-09-22 19:03:00,
2013-09-22 15:09:00,64.2,46.8,29.71,West,270,7.6,7.6,53,0.00,,,1.30,meteobridge,2013-09-22 19:09:00,
2013-09-22 15:15:00,64.8,47.7,29.72,North,0,9.2,9.2,54,0.00,,,1.30,meteobridge,2013-09-22 19:15:00,
2013-09-22 15:20:00,63.9,46.4,29.72,NW,315,4.5,6.0,53,0.00,,,1.30,meteobridge,2013-09-22 19:20:00,
2013-09-22 15:26:00,64.4,47.5,29.71,North,0,5.4,5.4,54,0.00,,,1.30,meteobridge,2013-09-22 19:26:00,
2013-09-22 15:32:00,63.3,45.9,29.71,NW,315,7.6,8.3,53,0.00,,,1.30,meteobridge,2013-09-22 19:32:00,
2013-09-22 15:37:00,64.2,47.3,29.71,South,180,10.7,10.7,54,0.00,,,1.30,meteobridge,2013-09-22 19:37:00,
2013-09-22 15:43:00,63.9,46.4,29.71,West,270,5.4,8.3,53,0.00,,,1.30,meteobridge,2013-09-22 19:43:00,
2013-09-22 15:48:00,64.8,47.3,29.72,North,0,6.0,6.0,53,0.00,,,1.30,meteobridge,2013-09-22 19:48:00,
2013-09-22 15:54:00,64.6,47.1,29.72,North,0,6.9,9.2,53,0.00,,,1.30,meteobridge,2013-09-22 19:54:00,
2013-09-22 16:00:00,64.8,46.8,29.72,NW,315,9.8,10.7,52,0.00,,,1.30,meteobridge,2013-09-22 20:00:00,
2013-09-22 16:05:00,64.4,45.9,29.72,SW,225,9.8,9.8,51,0.00,,,1.30,meteobridge,2013-09-22 20:05:00,
2013-09-22 16:11:00,64.9,46.9,29.72,South,180,5.4,6.0,52,0.00,,,1.30,meteobridge,2013-09-22 20:11:00,
2013-09-22 16:17:00,63.9,45.3,29.72,North,0,6.9,9.2,51,0.00,,,1.30,meteobridge,2013-09-22 20:17:00,
2013-09-22 16:22:00,63.5,45.0,29.72,North,0,8.3,11.4,51,0.00,,,1.30,meteobridge,2013-09-22 20:22:00,
2013-09-22 16:28:00,63.5,45.0,29.72,SW,225,7.6,9.8,51,0.00,,,1.30,meteobridge,2013-09-22 20:28:00,
2013-09-22 16:34:00,63.3,45.0,29.73,NW,315,7.6,9.8,51,0.00,,,1.30,meteobridge,2013-09-22 20:34:00,
2013-09-22 16:39:00,63.1,45.1,29.72,North,0,6.0,13.0,52,0.00,,,1.30,meteobridge,2013-09-22 20:39:00,
2013-09-22 16:45:00,64.2,45.7,29.73,North,0,5.4,9.8,51,0.00,,,1.30,meteobridge,2013-09-22 20:45:00,
2013-09-22 16:50:00,64.8,45.7,29.72,North,0,10.7,13.0,50,0.00,,,1.30,meteobridge,2013-09-22 20:50:00,
2013-09-22 16:56:00,64.0,45.5,29.72,West,270,7.6,8.3,51,0.00,,,1.30,meteobridge,2013-09-22 20:56:00,
2013-09-22 17:02:00,64.0,45.5,29.72,North,0,9.2,11.4,51,0.00,,,1.30,meteobridge,2013-09-22 21:02:00,
2013-09-22 17:07:00,63.9,45.3,29.73,West,270,8.3,8.3,51,0.00,,,1.30,meteobridge,2013-09-22 21:07:00,
2013-09-22 17:13:00,63.3,45.3,29.73,NW,315,8.3,9.8,52,0.00,,,1.30,meteobridge,2013-09-22 21:13:00,
2013-09-22 17:19:00,62.4,45.5,29.73,NW,315,5.4,6.9,54,0.00,,,1.30,meteobridge,2013-09-22 21:19:00,
2013-09-22 17:24:00,62.6,45.1,29.74,North,0,10.7,14.5,53,0.00,,,1.30,meteobridge,2013-09-22 21:24:00,
2013-09-22 17:30:00,61.9,45.1,29.74,SW,225,9.2,11.4,54,0.00,,,1.30,meteobridge,2013-09-22 21:30:00,
2013-09-22 17:36:00,62.4,46.0,29.74,West,270,6.0,6.0,55,0.00,,,1.30,meteobridge,2013-09-22 21:36:00,
2013-09-22 17:41:00,62.2,45.9,29.74,North,0,6.9,6.9,55,0.00,,,1.30,meteobridge,2013-09-22 21:41:00,
2013-09-22 17:47:00,62.4,46.0,29.74,North,0,5.4,9.2,55,0.00,,,1.30,meteobridge,2013-09-22 21:47:00,
2013-09-22 17:52:00,62.1,45.7,29.75,NW,315,13.0,13.0,55,0.00,,,1.30,meteobridge,2013-09-22 21:52:00,
2013-09-22 17:58:00,61.9,46.0,29.75,SW,225,7.6,7.6,56,0.00,,,1.30,meteobridge,2013-09-22 21:58:00,
2013-09-22 18:04:00,61.7,45.9,29.75,NW,315,7.6,7.6,56,0.00,,,1.30,meteobridge,2013-09-22 22:04:00,
2013-09-22 18:09:00,61.3,45.5,29.75,North,0,6.9,6.9,56,0.00,,,1.30,meteobridge,2013-09-22 22:09:00,
2013-09-22 18:15:00,60.8,45.0,29.75,West,270,5.4,6.0,56,0.00,,,1.30,meteobridge,2013-09-22 22:15:00,
2013-09-22 18:21:00,60.4,45.7,29.75,North,0,5.4,6.0,58,0.00,,,1.30,meteobridge,2013-09-22 22:21:00,
2013-09-22 18:26:00,60.3,45.5,29.75,North,0,4.5,4.5,58,0.00,,,1.30,meteobridge,2013-09-22 22:26:00,
2013-09-22 18:32:00,59.9,45.1,29.75,North,0,3.1,5.4,58,0.00,,,1.30,meteobridge,2013-09-22 22:32:00,
2013-09-22 18:38:00,59.4,45.0,29.75,North,0,3.1,4.5,59,0.00,,,1.30,meteobridge,2013-09-22 22:38:00,
2013-09-22 18:43:00,58.8,45.0,29.76,West,270,3.1,3.1,60,0.00,,,1.30,meteobridge,2013-09-22 22:43:00,
2013-09-22 18:49:00,58.3,45.0,29.76,North,0,2.2,2.2,61,0.00,,,1.30,meteobridge,2013-09-22 22:49:00,
2013-09-22 18:55:00,57.7,44.4,29.77,West,270,1.6,1.6,61,0.00,,,1.30,meteobridge,2013-09-22 22:55:00,
2013-09-22 19:00:00,57.2,44.2,29.77,East,90,0.0,0.0,62,0.00,,,1.30,meteobridge,2013-09-22 23:00:00,
2013-09-22 19:06:00,56.8,44.4,29.78,West,270,0.0,0.0,63,0.00,,,1.30,meteobridge,2013-09-22 23:06:00,
2013-09-22 19:12:00,56.5,44.1,29.77,North,0,0.0,0.0,63,0.00,,,1.30,meteobridge,2013-09-22 23:12:00,
2013-09-22 19:17:00,56.7,44.2,29.78,NE,45,1.6,1.6,63,0.00,,,1.30,meteobridge,2013-09-22 23:17:00,
2013-09-22 19:22:00,56.3,43.9,29.78,North,0,1.6,1.6,63,0.00,,,1.30,meteobridge,2013-09-22 23:22:00,
2013-09-22 19:28:00,56.1,43.7,29.79,West,270,0.0,0.0,63,0.00,,,1.30,meteobridge,2013-09-22 23:28:00,
2013-09-22 19:34:00,55.0,43.2,29.79,North,0,0.0,0.0,64,0.00,,,1.30,meteobridge,2013-09-22 23:34:00,
2013-09-22 19:39:00,54.9,43.0,29.80,West,270,0.0,0.0,64,0.00,,,1.30,meteobridge,2013-09-22 23:39:00,
2013-09-22 19:45:00,54.1,42.6,29.80,West,270,0.0,0.0,65,0.00,,,1.30,meteobridge,2013-09-22 23:45:00,
2013-09-22 19:50:00,53.8,42.3,29.80,West,270,0.0,0.0,65,0.00,,,1.30,meteobridge,2013-09-22 23:50:00,
2013-09-22 19:56:00,53.2,42.6,29.80,West,270,0.0,0.0,67,0.00,,,1.30,meteobridge,2013-09-22 23:56:00,
2013-09-22 20:02:00,52.7,42.1,29.80,SW,225,3.1,3.1,67,0.00,,,1.30,meteobridge,2013-09-23 00:02:00,
2013-09-22 20:07:00,54.1,42.6,29.80,West,270,3.8,3.8,65,0.00,,,1.30,meteobridge,2013-09-23 00:07:00,
2013-09-22 20:13:00,55.0,42.6,29.81,North,0,3.8,6.0,63,0.00,,,1.30,meteobridge,2013-09-23 00:13:00,
2013-09-22 20:19:00,55.0,42.6,29.81,North,0,3.8,4.5,63,0.00,,,1.30,meteobridge,2013-09-23 00:19:00,
2013-09-22 20:24:00,54.5,42.1,29.81,South,180,4.5,6.0,63,0.00,,,1.30,meteobridge,2013-09-23 00:24:00,
2013-09-22 20:30:00,54.7,41.9,29.81,North,0,5.4,6.9,62,0.00,,,1.30,meteobridge,2013-09-23 00:30:00,
2013-09-22 20:36:00,54.7,41.9,29.81,NW,315,5.4,7.6,62,0.00,,,1.30,meteobridge,2013-09-23 00:36:00,
2013-09-22 20:41:00,54.5,41.7,29.81,North,0,9.2,9.2,62,0.00,,,1.30,meteobridge,2013-09-23 00:41:00,
2013-09-22 20:47:00,54.3,41.5,29.82,NW,315,2.2,5.4,62,0.00,,,1.30,meteobridge,2013-09-23 00:47:00,
2013-09-22 20:52:00,53.8,41.0,29.83,North,0,0.0,1.6,62,0.00,,,1.30,meteobridge,2013-09-23 00:52:00,
2013-09-22 20:58:00,54.3,41.5,29.82,West,270,0.0,1.6,62,0.00,,,1.30,meteobridge,2013-09-23 00:58:00,
2013-09-22 21:04:00,53.2,41.0,29.82,North,0,0.0,0.7,63,0.00,,,1.30,meteobridge,2013-09-23 01:04:00,
2013-09-22 21:09:00,52.3,40.5,29.83,East,90,0.7,0.7,64,0.00,,,1.30,meteobridge,2013-09-23 01:09:00,
2013-09-22 21:15:00,53.4,41.2,29.83,North,0,3.8,6.0,63,0.00,,,1.30,meteobridge,2013-09-23 01:15:00,
2013-09-22 21:21:00,53.2,41.0,29.83,SW,225,5.4,5.4,63,0.00,,,1.30,meteobridge,2013-09-23 01:21:00,
2013-09-22 21:26:00,53.6,40.8,29.83,NW,315,6.0,9.8,62,0.00,,,1.30,meteobridge,2013-09-23 01:26:00,
2013-09-22 21:32:00,53.2,41.0,29.84,South,180,10.7,10.7,63,0.00,,,1.30,meteobridge,2013-09-23 01:32:00,
2013-09-22 21:38:00,53.4,40.6,29.84,NW,315,2.2,9.8,62,0.00,,,1.30,meteobridge,2013-09-23 01:38:00,
2013-09-22 21:43:00,53.6,40.5,29.84,North,0,6.9,14.5,61,0.00,,,1.30,meteobridge,2013-09-23 01:43:00,
2013-09-22 21:49:00,53.4,40.6,29.84,NW,315,5.4,9.2,62,0.00,,,1.30,meteobridge,2013-09-23 01:49:00,
2013-09-22 21:55:00,53.2,40.6,29.84,West,270,6.9,6.9,62,0.00,,,1.30,meteobridge,2013-09-23 01:55:00,
2013-09-22 22:00:00,54.0,39.9,29.85,North,0,12.1,15.9,59,0.00,,,1.30,meteobridge,2013-09-23 02:00:00,
2013-09-22 22:06:00,53.8,39.7,29.85,West,270,9.2,13.0,59,0.00,,,1.30,meteobridge,2013-09-23 02:06:00,
2013-09-22 22:11:00,53.6,39.6,29.85,North,0,6.9,10.7,59,0.00,,,1.30,meteobridge,2013-09-23 02:11:00,
2013-09-22 22:17:00,53.4,40.3,29.85,North,0,17.4,17.4,61,0.00,,,1.30,meteobridge,2013-09-23 02:17:00,
2013-09-22 22:23:00,53.6,39.6,29.86,North,0,13.0,13.0,59,0.00,,,1.30,meteobridge,2013-09-23 02:23:00,
2013-09-22 22:28:00,54.0,39.6,29.86,NW,315,10.7,13.0,58,0.00,,,1.30,meteobridge,2013-09-23 02:28:00,
2013-09-22 22:34:00,53.6,39.2,29.86,North,0,10.7,10.7,58,0.00,,,1.30,meteobridge,2013-09-23 02:34:00,
2013-09-22 22:40:00,54.0,39.6,29.86,North,0,13.6,17.4,58,0.00,,,1.30,meteobridge,2013-09-23 02:40:00,
2013-09-22 22:45:00,53.8,39.4,29.87,West,270,6.0,12.1,58,0.00,,,1.30,meteobridge,2013-09-23 02:45:00,
2013-09-22 22:51:00,53.8,39.4,29.87,NW,315,7.6,8.3,58,0.00,,,1.30,meteobridge,2013-09-23 02:51:00,
2013-09-22 22:57:00,53.6,39.6,29.86,North,0,9.2,12.1,59,0.00,,,1.30,meteobridge,2013-09-23 02:57:00,
2013-09-22 23:02:00,53.8,39.7,29.87,NW,315,3.8,6.9,59,0.00,,,1.30,meteobridge,2013-09-23 03:02:00,
2013-09-22 23:08:00,53.8,39.4,29.86,NW,315,14.5,14.5,58,0.00,,,1.30,meteobridge,2013-09-23 03:08:00,
2013-09-22 23:13:00,54.0,39.0,29.86,North,0,11.4,15.9,57,0.00,,,1.30,meteobridge,2013-09-23 03:13:00,
2013-09-22 23:19:00,54.0,39.6,29.86,North,0,11.4,13.6,58,0.00,,,1.30,meteobridge,2013-09-23 03:19:00,
2013-09-22 23:25:00,54.0,39.6,29.87,NW,315,14.5,15.2,58,0.00,,,1.30,meteobridge,2013-09-23 03:25:00,
2013-09-22 23:30:00,53.8,39.4,29.86,NW,315,6.9,9.8,58,0.00,,,1.30,meteobridge,2013-09-23 03:30:00,
2013-09-22 23:36:00,53.6,39.2,29.86,North,0,5.4,7.6,58,0.00,,,1.30,meteobridge,2013-09-23 03:36:00,
2013-09-22 23:42:00,53.4,39.9,29.86,West,270,8.3,8.3,60,0.00,,,1.30,meteobridge,2013-09-23 03:42:00,
2013-09-22 23:47:00,53.4,39.9,29.86,North,0,7.6,7.6,60,0.00,,,1.30,meteobridge,2013-09-23 03:47:00,
2013-09-22 23:53:00,53.2,40.1,29.86,NW,315,8.3,8.3,61,0.00,,,1.30,meteobridge,2013-09-23 03:53:00,
2013-09-22 23:59:00,53.2,40.1,29.87,NW,315,7.6,7.6,61,0.00,,,1.30,meteobridge,2013-09-23 03:59:00,